Weather in Buruncha

Russia / Orenburg Oblast     52°06′28″N   56°30′59″E
temp.,
°C
wind,
m/s
gust,
m/s
humid.,
%
clouds,
%
prec.,
mm/h
press.,
hPa
HPBL,
m
28 february, sun
sun2823:00−2sse249999 1.2 1003158
02:00−1s3799100 1.1 1002332
05:000sw3799100 2.3 1000387
08:00−1sw4798100 0.7 1000430
11:000sw4799100 2.1 1000461
14:000wsw5899100 1.1 1000549
17:00−2wsw589399 1.4 1002481
20:00−6w589594 0.1 1006321
1 march, mon
mon123:00−10wsw379697 0.5 1009204
02:00−12sw369699 0.3 1011149
05:00−15sw249798 0.6 101387
08:00−16ssw239798 0.2 101546
11:00−13sw239596 0.4 1017261
14:00−12wsw3493100 0.1 1018405
17:00−12wsw3593100 0.4 1019414
20:00−14sw249798 0.3 102083
2 march, tue
tue223:00−16w229894 0.3 102021
02:00−18wsw2299100 0.1 102123
05:00−21wsw22100100 0.1 102120
08:00−23ssw22100100 0.1 102120
11:00−21ssw3499100 0.1 1020225
14:00−18s4796100 0.0 1018339
17:00−15s5995100 0.1 1016409
20:00−14s51195100 0.2 1014431
3 march, wed
wed323:00−11sse51295100 0.9 1011475
02:00−5s61396100 1.9 1007725
05:00−3ssw81496100 3.9 1005840
08:00−3ssw71396100 1.9 1003738
11:00−2ssw71197100 3.7 1002708
14:00−1sw5896100 0.8 1001621
17:00−1wsw4797100 1.5 1001505
20:00−3wsw4897100 1.0 1002293
4 march, thu
thu423:00−4w4897100 1.8 1004340
02:00−7wnw3595100 0.3 1005109
05:00−10wnw229495 0.3 100621
08:00−9w229795 0.1 100838
11:00−7wnw369490 0.2 1010302
14:00−6wnw579299 0.1 1012476
17:00−7wnw489297 0.1 1013399
20:00−12w349743 0.0 101661